TimeCDT,TemperatureF,Dew PointF,Humidity,Sea Level PressureIn,VisibilityMPH,Wind Direction,Wind SpeedMPH,Gust SpeedMPH,PrecipitationIn,Events,Conditions,WindDirDegrees,DateUTC
12:15 AM,55.4,47.7,75,29.96,10.0,NW,12.7,-,N/A,,Overcast,320,2013-06-02 05:15:00
12:35 AM,55.4,47.3,74,29.96,10.0,NW,15.0,-,N/A,,Overcast,320,2013-06-02 05:35:00
12:55 AM,55.4,47.5,75,29.96,10.0,NW,12.7,19.6,N/A,,Overcast,320,2013-06-02 05:55:00
1:15 AM,55.0,47.5,76,29.96,10.0,NW,15.0,-,N/A,,Overcast,320,2013-06-02 06:15:00
1:35 AM,55.0,47.1,75,29.97,10.0,NNW,18.4,23.0,N/A,,Overcast,330,2013-06-02 06:35:00
1:55 AM,54.9,46.0,72,29.98,10.0,NNW,15.0,23.0,N/A,,Overcast,340,2013-06-02 06:55:00
2:15 AM,54.5,45.5,72,29.98,10.0,North,16.1,21.9,N/A,,Overcast,350,2013-06-02 07:15:00
2:35 AM,54.1,45.3,72,29.98,10.0,NNW,15.0,18.4,N/A,,Overcast,340,2013-06-02 07:35:00
2:55 AM,54.0,44.8,71,29.98,10.0,North,17.3,23.0,N/A,,Overcast,350,2013-06-02 07:55:00
3:15 AM,53.8,45.0,72,29.98,10.0,North,12.7,19.6,N/A,,Overcast,350,2013-06-02 08:15:00
3:35 AM,53.6,45.7,75,29.99,10.0,NNW,11.5,-,N/A,,Overcast,340,2013-06-02 08:35:00
3:55 AM,53.8,45.7,74,29.99,10.0,NNW,9.2,-,N/A,,Overcast,340,2013-06-02 08:55:00
4:15 AM,53.8,45.9,75,30.00,10.0,NNW,11.5,-,N/A,,Overcast,340,2013-06-02 09:15:00
4:35 AM,53.6,45.9,75,30.00,10.0,NNW,12.7,-,N/A,,Overcast,340,2013-06-02 09:35:00
4:55 AM,53.2,45.1,74,30.01,10.0,North,13.8,-,N/A,,Overcast,350,2013-06-02 09:55:00
5:15 AM,53.1,45.3,75,30.01,10.0,NNW,11.5,-,N/A,,Overcast,340,2013-06-02 10:15:00
5:35 AM,53.1,45.3,75,30.02,10.0,NNW,11.5,-,N/A,,Overcast,340,2013-06-02 10:35:00
5:55 AM,52.9,44.1,72,30.04,10.0,NNW,15.0,-,N/A,,Overcast,340,2013-06-02 10:55:00
6:15 AM,52.7,41.5,66,30.05,10.0,North,18.4,21.9,N/A,,Overcast,350,2013-06-02 11:15:00
6:35 AM,52.3,41.2,66,30.06,10.0,North,13.8,-,N/A,,Overcast,360,2013-06-02 11:35:00
6:55 AM,52.0,41.2,67,30.06,10.0,North,12.7,18.4,N/A,,Scattered Clouds,350,2013-06-02 11:55:00
7:15 AM,52.2,41.5,67,30.06,10.0,North,13.8,20.7,N/A,,Mostly Cloudy,350,2013-06-02 12:15:00
7:35 AM,52.3,41.4,66,30.06,10.0,North,15.0,19.6,N/A,,Overcast,360,2013-06-02 12:35:00
7:55 AM,53.6,42.4,66,30.06,10.0,North,16.1,19.6,N/A,,Overcast,360,2013-06-02 12:55:00
8:15 AM,53.6,42.1,65,30.07,10.0,North,15.0,21.9,N/A,,Overcast,360,2013-06-02 13:15:00
8:35 AM,53.6,42.3,65,30.07,10.0,North,15.0,-,N/A,,Overcast,10,2013-06-02 13:35:00
8:55 AM,55.0,42.3,62,30.08,10.0,North,16.1,20.7,N/A,,Mostly Cloudy,10,2013-06-02 13:55:00
9:15 AM,55.2,42.3,62,30.08,10.0,NNE,16.1,-,N/A,,Overcast,30,2013-06-02 14:15:00
9:35 AM,55.6,43.2,63,30.08,10.0,North,13.8,-,N/A,,Mostly Cloudy,10,2013-06-02 14:35:00
9:55 AM,56.1,43.0,61,30.08,10.0,NNE,12.7,16.1,N/A,,Scattered Clouds,20,2013-06-02 14:55:00
10:15 AM,56.7,42.8,60,30.08,10.0,North,12.7,18.4,N/A,,Overcast,360,2013-06-02 15:15:00
10:35 AM,56.1,43.2,62,30.09,10.0,North,13.8,-,N/A,,Overcast,10,2013-06-02 15:35:00
10:55 AM,57.0,43.9,61,30.09,10.0,North,10.4,-,N/A,,Overcast,350,2013-06-02 15:55:00
11:15 AM,56.8,43.5,61,30.09,10.0,North,11.5,-,N/A,,Overcast,350,2013-06-02 16:15:00
11:35 AM,57.7,44.1,60,30.09,10.0,North,9.2,-,N/A,,Overcast,350,2013-06-02 16:35:00
11:55 AM,58.3,44.1,59,30.09,10.0,NNW,10.4,-,N/A,,Overcast,340,2013-06-02 16:55:00
12:15 PM,58.8,44.6,59,30.09,10.0,NNW,10.4,16.1,N/A,,Overcast,330,2013-06-02 17:15:00
12:35 PM,60.4,44.1,55,30.09,10.0,NNW,11.5,17.3,N/A,,Overcast,340,2013-06-02 17:35:00
12:55 PM,59.4,43.9,57,30.08,10.0,North,10.4,-,N/A,,Overcast,350,2013-06-02 17:55:00
1:15 PM,60.4,43.2,53,30.08,10.0,North,9.2,-,N/A,,Mostly Cloudy,10,2013-06-02 18:15:00
1:35 PM,61.7,43.0,50,30.08,10.0,NNE,6.9,11.5,N/A,,Mostly Cloudy,20,2013-06-02 18:35:00
1:55 PM,61.9,45.0,54,30.07,10.0,NNW,11.5,-,N/A,,Overcast,340,2013-06-02 18:55:00
2:15 PM,62.2,43.9,51,30.07,10.0,North,4.6,-,N/A,,Overcast,360,2013-06-02 19:15:00
2:35 PM,62.2,42.3,48,30.07,10.0,NNE,9.2,-,N/A,,Overcast,20,2013-06-02 19:35:00
2:55 PM,62.6,44.1,51,30.08,10.0,NNW,8.1,-,N/A,,Overcast,340,2013-06-02 19:55:00
3:15 PM,63.1,42.4,47,30.07,10.0,North,8.1,-,N/A,,Overcast,10,2013-06-02 20:15:00
3:35 PM,63.5,42.6,47,30.07,10.0,North,11.5,-,N/A,,Scattered Clouds,10,2013-06-02 20:35:00
3:55 PM,63.3,41.9,46,30.07,10.0,NW,4.6,-,N/A,,Scattered Clouds,320,2013-06-02 20:55:00
4:15 PM,62.6,43.0,49,30.07,10.0,NNW,8.1,-,N/A,,Scattered Clouds,330,2013-06-02 21:15:00
4:35 PM,64.0,41.5,44,30.06,10.0,Calm,Calm,-,N/A,,Scattered Clouds,0,2013-06-02 21:35:00
4:55 PM,63.7,41.4,44,30.06,10.0,NNW,5.8,-,N/A,,Clear,340,2013-06-02 21:55:00
5:15 PM,64.6,41.4,43,30.05,10.0,North,6.9,-,N/A,,Clear,360,2013-06-02 22:15:00
5:35 PM,65.5,41.5,42,30.04,10.0,NNW,8.1,-,N/A,,Clear,340,2013-06-02 22:35:00
5:55 PM,64.4,40.8,42,30.04,10.0,Calm,Calm,-,N/A,,Scattered Clouds,0,2013-06-02 22:55:00
6:15 PM,64.8,41.5,43,30.04,10.0,NNW,5.8,-,N/A,,Scattered Clouds,330,2013-06-02 23:15:00
6:35 PM,63.7,41.2,44,30.04,10.0,NW,3.5,-,N/A,,Scattered Clouds,310,2013-06-02 23:35:00
6:55 PM,64.4,40.6,42,30.03,10.0,WNW,4.6,-,N/A,,Clear,290,2013-06-02 23:55:00
7:15 PM,64.6,40.1,41,30.04,10.0,NNW,3.5,-,N/A,,Clear,340,2013-06-03 00:15:00
7:35 PM,63.9,42.1,45,30.03,10.0,NNW,4.6,-,N/A,,Clear,340,2013-06-03 00:35:00
7:55 PM,63.9,41.2,43,30.03,10.0,North,3.5,-,N/A,,Scattered Clouds,10,2013-06-03 00:55:00
8:15 PM,62.6,42.6,48,30.03,10.0,NNE,4.6,-,N/A,,Clear,20,2013-06-03 01:15:00
8:35 PM,61.7,42.3,49,30.02,10.0,Calm,Calm,-,N/A,,Clear,0,2013-06-03 01:35:00
8:55 PM,62.1,41.0,46,30.03,10.0,Calm,Calm,-,N/A,,Clear,0,2013-06-03 01:55:00
9:15 PM,60.8,43.0,52,30.03,10.0,Calm,Calm,-,N/A,,Clear,0,2013-06-03 02:15:00
9:35 PM,59.0,44.6,59,30.03,10.0,Calm,Calm,-,N/A,,Clear,0,2013-06-03 02:35:00
9:55 PM,59.9,41.7,51,30.04,10.0,Calm,Calm,-,N/A,,Clear,0,2013-06-03 02:55:00
10:15 PM,59.9,40.1,48,30.04,10.0,Calm,Calm,-,N/A,,Clear,0,2013-06-03 03:15:00
10:35 PM,56.3,45.5,67,30.04,10.0,Calm,Calm,-,N/A,,Clear,0,2013-06-03 03:35:00
10:55 PM,56.5,46.0,68,30.04,10.0,Calm,Calm,-,N/A,,Clear,0,2013-06-03 03:55:00
11:15 PM,54.3,47.1,77,30.04,10.0,Calm,Calm,-,N/A,,Clear,0,2013-06-03 04:15:00
11:35 PM,53.6,47.5,80,30.04,10.0,WSW,4.6,-,N/A,,Clear,250,2013-06-03 04:35:00
11:55 PM,53.8,46.8,77,30.04,10.0,WSW,4.6,-,N/A,,Clear,250,2013-06-03 04:55:00